Weather History for Joplin, MO

Change the Weather History Date:

Thursday, August 8, 2013

  Actual Average Record
Temperature  
Mean Temperature 78 °F 81 °F  
Max Temperature 85 °F 92 °F 106 °F (1970)
Min Temperature 71 °F 70 °F 50 °F (1989)
Degree Days  
Heating Degree Days 0 0  
Month to date heating degree days 0 0  
Since 1 June heating degree days 12 5  
Since 1 July heating degree days 0 0  
Cooling Degree Days 13 16  
Month to date cooling degree days 108 128  
Year to date cooling degree days 983 1099  
Since 1 June cooling degree days 839 919  
Growing Degree Days 28 (Base 50)    
Moisture  
Dew Point 72 °F    
Average Humidity 83    
Maximum Humidity 100    
Minimum Humidity 65    
Precipitation  
Precipitation 0.61 in 0.10 in 1.07 in (2011)
Month to date precipitation 4.06 0.79  
Year to date precipitation 34.92 28.41  
Snow  
Snow 0.00 in - - ()
Month to date snowfall 0.0  
Since 1 June snowfall 0.0  
Since 1 July snowfall 0.0  
Snow Depth 0.00 in    
Sea Level Pressure  
Sea Level Pressure 29.93 in    
Wind  
Wind Speed 6 mph (ENE)    
Max Wind Speed 14 mph    
Max Gust Speed 18 mph    
Visibility 8 miles    
Events Rain , Thunderstorm    
T = Trace of Precipitation, MM = Missing Value Source: NWS Daily Summary

Daily Weather History Graph

Daily Weather History Graph

Search for Another Location

Airport:

Trip Planner

Search our weather history database for the weather conditions in past years. The results will help you decide how hot, cold, wet, or windy it might be!

Date:

Astronomy

Aug. 08, 2013 Rise Set
Actual Time 6:28 AM CDT 8:17 PM CDT
Civil Twilight 6:00 AM CDT 8:45 PM CDT
Nautical Twilight 5:26 AM CDT 9:19 PM CDT
Astronomical Twilight 4:50 AM CDT 9:56 PM CDT
Moon 8:12 AM CDT (8/8) 9:01 PM CDT (8/8)
Length of Visible Light 14h 45m
Length of Day
13h 48m
Waxing Crescent, 3% of the Moon is Illuminated
Aug 8
Waxing Crescent
Aug 14
First Quarter
Aug 20
Full
Aug 28
Last Quarter
Sep 5
New

Hourly Weather History & Observations

Time (CDT) Temp. Heat Index Dew Point Humidity Pressure Visibility Wind Dir Wind Speed Gust Speed Precip Events Conditions
12:53 AM 75.0 °F - 73.0 °F 94% 29.88 in 10.0 mi NE 3.5 mph - N/A   Mostly Cloudy
1:53 AM 75.9 °F - 73.0 °F 91% 29.90 in 10.0 mi SE 4.6 mph - N/A   Overcast
2:53 AM 75.0 °F - 72.0 °F 90% 29.88 in 10.0 mi ESE 5.8 mph - N/A   Scattered Clouds
3:53 AM 73.9 °F - 71.1 °F 91% 29.84 in 10.0 mi ESE 6.9 mph - N/A   Clear
4:31 AM 73.4 °F - 71.6 °F 94% 29.91 in 10.0 mi SE 5.8 mph - N/A   Mostly Cloudy
4:53 AM 73.0 °F - 71.1 °F 93% 29.86 in 10.0 mi ESE 6.9 mph - 0.00 in Rain Light Rain
5:08 AM 73.4 °F - 71.6 °F 94% 29.92 in 10.0 mi SSE 3.5 mph - 0.00 in Rain Light Rain
5:25 AM 73.4 °F - 71.6 °F 94% 29.94 in 4.0 mi Calm Calm - 0.03 in Rain , Thunderstorm Rain
5:50 AM 73.4 °F - 71.6 °F 94% 29.96 in 4.0 mi WSW 5.8 mph - 0.09 in Rain Rain
5:53 AM 73.0 °F - 71.1 °F 93% 29.93 in 4.0 mi WSW 6.9 mph - 0.09 in Rain , Thunderstorm Thunderstorms and Rain
6:01 AM 71.6 °F - 71.6 °F 100% 29.97 in 4.0 mi WSW 6.9 mph - 0.02 in Rain , Thunderstorm Thunderstorms and Rain
6:44 AM 71.6 °F - 71.6 °F 100% 30.00 in 2.5 mi WSW 8.1 mph - 0.22 in Rain , Thunderstorm Thunderstorms and Rain
6:53 AM 72.0 °F - 71.1 °F 97% 29.96 in 2.5 mi WSW 4.6 mph - 0.27 in Rain , Thunderstorm Thunderstorms and Rain
6:55 AM 71.6 °F - 71.6 °F 100% 29.99 in 3.0 mi SW 4.6 mph - 0.00 in Rain , Thunderstorm Thunderstorms and Rain
7:22 AM 71.6 °F - 71.6 °F 100% 30.01 in 2.5 mi West 4.6 mph - N/A Rain , Thunderstorm Thunderstorms and Rain
7:37 AM 71.6 °F - 71.6 °F 100% 30.02 in 3.0 mi West 10.4 mph - N/A Rain , Thunderstorm Thunderstorms and Rain
7:53 AM 71.1 °F - 70.0 °F 96% 29.96 in 5.0 mi NW 10.4 mph - N/A Rain Rain
8:22 AM 71.6 °F - 69.8 °F 94% 29.94 in 9.0 mi ENE 6.9 mph - 0.05 in Rain Light Rain
8:53 AM 72.0 °F - 70.0 °F 93% 29.91 in 10.0 mi East 6.9 mph - 0.05 in   Partly Cloudy
9:16 AM 73.4 °F - 71.6 °F 94% 29.92 in 10.0 mi ESE 9.2 mph - N/A   Mostly Cloudy
9:53 AM 73.0 °F - 71.1 °F 93% 29.89 in 10.0 mi ESE 5.8 mph - N/A   Partly Cloudy
10:09 AM 73.4 °F - 69.8 °F 88% 29.93 in 10.0 mi SSE 5.8 mph - N/A   Mostly Cloudy
10:53 AM 75.9 °F - 71.1 °F 85% 29.91 in 10.0 mi Variable 3.5 mph - N/A   Scattered Clouds
11:53 AM 81.0 °F 84.4 °F 70.0 °F 69% 29.89 in 10.0 mi ESE 6.9 mph - N/A   Clear
12:53 PM 84.0 °F 89.0 °F 71.1 °F 65% 29.88 in 10.0 mi South 3.5 mph - N/A   Clear
1:53 PM 84.0 °F 89.0 °F 71.1 °F 65% 29.89 in 10.0 mi NNE 5.8 mph - N/A   Scattered Clouds
2:53 PM 82.9 °F 88.0 °F 72.0 °F 69% 29.90 in 10.0 mi North 5.8 mph - N/A   Scattered Clouds
3:05 PM 80.6 °F 84.6 °F 71.6 °F 74% 29.94 in 10.0 mi NNE 5.8 mph - N/A   Mostly Cloudy
3:53 PM 79.0 °F - 72.0 °F 79% 29.91 in 10.0 mi North 5.8 mph - N/A   Overcast
4:53 PM 79.0 °F - 72.0 °F 79% 29.91 in 10.0 mi NNE 6.9 mph - N/A   Scattered Clouds
5:53 PM 80.1 °F 84.2 °F 73.0 °F 79% 29.91 in 10.0 mi NNE 9.2 mph - N/A   Mostly Cloudy
6:53 PM 80.1 °F 84.2 °F 73.0 °F 79% 29.90 in 10.0 mi NNE 8.1 mph - N/A   Scattered Clouds
7:53 PM 77.0 °F - 73.0 °F 88% 29.90 in 10.0 mi NNE 8.1 mph - N/A   Partly Cloudy
8:53 PM 75.0 °F - 72.0 °F 90% 29.91 in 10.0 mi NE 4.6 mph - N/A   Clear
9:53 PM 73.9 °F - 72.0 °F 93% 29.95 in 10.0 mi Calm Calm - N/A   Partly Cloudy
10:53 PM 73.9 °F - 72.0 °F 93% 29.94 in 9.0 mi NNE 5.8 mph - N/A   Clear
11:29 PM 73.4 °F - 71.6 °F 94% 29.96 in 8.0 mi ENE 4.6 mph - N/A   Scattered Clouds
11:39 PM 73.4 °F - 71.6 °F 94% 29.97 in 7.0 mi NE 4.6 mph - N/A   Mostly Cloudy
11:53 PM 73.0 °F - 72.0 °F 96% 29.95 in 8.0 mi NE 4.6 mph - N/A   Overcast